This is the latest recevied weather packets stored in our database for station/object AI5KP-13. If no packets are shown the sender has not sent any weather packets the latest 10 day(s).
| Time | Temp. | Humidity | Pressure | Rain* | Wind** | Luminosity | Snow |
|---|---|---|---|---|---|---|---|
| 1777920702 | 25° C | 52% | 1008.1 hPa | 0 mm | - | 704 W/m² | - |
| 1777920398 | 24.44° C | 54% | 1008.1 hPa | 0 mm | - | 716 W/m² | - |
| 1777920093 | 24.44° C | 53% | 1008 hPa | 0 mm | - | 720 W/m² | - |
| 1777919790 | 24.44° C | 52% | 1007.9 hPa | 0 mm | - | 722 W/m² | - |
| 1777919488 | 24.44° C | 53% | 1008.2 hPa | 0 mm | - | 725 W/m² | - |
| 1777919185 | 24.44° C | 56% | 1008 hPa | 0 mm | - | 728 W/m² | - |
| 1777918883 | 24.44° C | 55% | 1008.2 hPa | 0 mm | - | 730 W/m² | - |
| 1777918580 | 24.44° C | 57% | 1008.3 hPa | 0 mm | - | 732 W/m² | - |
| 1777918277 | 24.44° C | 53% | 1008.6 hPa | 0 mm | - | 733 W/m² | - |
| 1777917977 | 24.44° C | 54% | 1008.6 hPa | 0 mm | - | 733 W/m² | - |
| 1777917675 | 24.44° C | 58% | 1008.7 hPa | 0 mm | - | 732 W/m² | - |
| 1777917372 | 23.89° C | 56% | 1008.6 hPa | 0 mm | - | 735 W/m² | - |
| 1777917068 | 23.89° C | 55% | 1008.7 hPa | 0 mm | - | 736 W/m² | - |
| 1777916767 | 24.44° C | 57% | 1008.6 hPa | 0 mm | - | 737 W/m² | - |
| 1777916463 | 23.89° C | 56% | 1008.7 hPa | 0 mm | - | 735 W/m² | - |
| 1777916160 | 23.89° C | 54% | 1008.7 hPa | 0 mm | - | 735 W/m² | - |
| 1777915858 | 23.89° C | 58% | 1008.8 hPa | 0 mm | - | 732 W/m² | - |
| 1777915553 | 23.89° C | 55% | 1008.8 hPa | 0 mm | - | 731 W/m² | - |
| 1777915250 | 23.89° C | 55% | 1009 hPa | 0 mm | - | 728 W/m² | - |
| 1777914947 | 23.33° C | 57% | 1008.8 hPa | 0 mm | - | 727 W/m² | - |
| 1777914644 | 23.89° C | 55% | 1008.9 hPa | 0 mm | - | 723 W/m² | - |
| 1777914339 | 23.33° C | 57% | 1008.9 hPa | 0 mm | - | 720 W/m² | - |
| 1777914038 | 23.33° C | 59% | 1009 hPa | 0 mm | - | 712 W/m² | - |
| 1777913733 | 23.33° C | 55% | 1009 hPa | 0 mm | - | 707 W/m² | - |
| 1777913430 | 23.33° C | 57% | 1009.1 hPa | 0 mm | - | 704 W/m² | - |
* Rain latest hour (hover to see other rain measurements)
** Current wind speed in m/s (hover to see current wind gust speed)